Home   Weather   Hadera   Past weeks

Flag for Israel Past Weather in Hadera, Israel — Yesterday and Last 2 Weeks

Now
55 °F

Clear.


Feels Like: 55 °F
Forecast: 54 / 68 °F
Wind: 3 mph from North

Location: Dov Airport

Current Time: Jan 18, 2017 at 1:46:10 am

Latest Report: Jan 17, 2017 at 10:50 pm


Visibility: 10 mi

Pressure: 29.98 "Hg

Humidity: 82%

Dew Point: 50 °F

Location of HaderaLocation

Past Weather in Hadera — Graph

°F

Hadera Temperature Yesterday

Maximum temperature yesterday: 66 °F (at 1:50 pm)
Minimum temperature yesterday: 54 °F (at 6:50 am)
Average temperature yesterday: 61 °F

High & Low Weather Summary for the Past Weeks

 TemperatureHumidityPressure
High70 °F (Jan 6, 2:50 pm)94% (Jan 4, 6:50 am)30.27 "Hg (Jan 4, 6:50 am)
Low46 °F (Jan 10, 6:50 am)28% (Jan 10, 12:50 pm)29.89 "Hg (Jan 14, 11:50 pm)
Average58 °F61%30.08 "Hg
* Reported Jan 2 10:50 pm — Jan 17 10:50 pm, Hadera, Weather by CustomWeather, © 2017

Note: Actual official high and low records may vary slightly from our data, if they occured in-between our weather recording intervals... More about our weather records

Advertising

Hadera Weather History for the Previous 24 Hours

Scroll right to see more
 ConditionsComfort  
Time TempWeatherWind HumidityBarometerVisibility
10:50 pm
Tue, Jan 17
55 °FClear.3 mph82%29.98 "Hg10 mi
9:50 pm59 °FClear.5 mph72%29.98 "Hg10 mi
8:50 pm59 °FClear.5 mph72%29.98 "Hg10 mi
7:50 pm59 °FClear.3 mph77%29.98 "Hg10 mi
6:50 pm61 °FClear.3 mph77%29.98 "Hg10 mi
5:50 pm63 °FClear.3 mph77%29.98 "Hg10 mi
4:50 pm64 °FSunny.5 mph68%29.98 "Hg10 mi
3:50 pm66 °FSunny.5 mph60%29.98 "Hg10 mi
2:50 pm66 °FSunny.6 mph52%29.98 "Hg10 mi
1:50 pm66 °FSunny.5 mph56%29.98 "Hg10 mi
12:50 pm64 °FSunny.6 mph68%29.98 "Hg10 mi
11:50 am63 °FSunny.5 mph64%30.01 "Hg10 mi
10:50 am64 °FSunny.2 mph52%30.04 "Hg10 mi
9:50 am63 °FSunny.3 mph64%30.04 "Hg10 mi
8:50 am61 °FSunny.1 mph55%30.04 "Hg10 mi
7:50 am55 °FSunny.2 mph67%30.04 "Hg10 mi
6:50 am54 °FSunny.5 mph67%30.04 "Hg10 mi
5:50 am55 °FClear.7 mph63%30.01 "Hg10 mi
5:30 am55 °FClear.7 mph63%30.01 "Hg10 mi
Weather by CustomWeather, © 2017

See weather overviewHow to use our weather pages